Location: *
(57.8420°S, 159.8600°W)
Time: 04:19:53
(UTC+00:00)

Cosmos 1076 Rocket - Pass Details

Date: 18 May 2021
Orbit: 588 x 613 km, 82.5° (Epoch: 23 June)

Event Time Altitude Azimuth Distance (km) Brightness Sun altitude
Rises 04:20:27 0° 4° (N) 2,848 7.1 -14.5°
Reaches altitude 10° 04:22:40 10° 8° (N) 1,957 6.2 -14.8°
Maximum altitude 04:26:52 52° 84° (E) 765 3.6 -15.3°
Drops below altitude 10° 04:31:10 10° 160° (SSE) 1,997 5.9 -15.9°
Enters shadow 04:31:27 - 161° (SSE) 2,105 6.0 -15.9°
